Location: Berduj
(43.0019°N, 22.3781°E)
Time: 22:11:19
(UTC+00:00)

Cosmos 1898 Rocket - Pass Details

Date: 19 October 2019
Orbit: 753 x 784 km, 74.0° (Epoch: 17 November)

Event Time Altitude Azimuth Distance (km) Brightness Sun altitude
Rises 18:14:41 0° 339° (NNW) 3,251 7.2 -28.5°
Reaches altitude 10° 18:17:04 10° 340° (NNW) 2,325 6.4 -28.9°
Enters shadow 18:20:56 50° 342° (NNW) 983 4.1 -29.6°
